NNS 30050

operational
NORAD ID: 1514 Int'l Des: 1965-065 Owner: BUWEPS Country: US
LEOCIRCULARPOLARONEWEB_TYPE

NNS 30050について

説明を読み込み中...

リアルタイム位置

3D地球を読み込み中...

次回通過

高度履歴

Altitude vs Time

uPlot chart will show altitude changes over time

軌道要素

1 1514U 65065F 25277.86487875 .00000134 00000-0 24255-3 0 9998
2 1514 89.9794 228.1626 0070568 158.3189 218.3317 13.35318227927195
Epoch: Oct 4, 2025 • Age: 10 hours

現在のステータス

高度 1085.8 km
速度 7.33 km/s
衛星直下点 -8.59°S, 65.11°W
タイプ other

大規模コンステレーション

Loading constellations...